ONEWEB-0573 (55152 NORAD) Tracking and Keplerian Element Data

This shows tracking and keplerian element data for the satellite.

Feedback or suggestion? Click here.




ElementValue
Catalog55152
NameONEWEB-0573
Epoch Orbit1119
Epoch Day84.88798662
Epoch Year2023
RAAN253.7152
Inclination86.622
Eccentricity0.0011768
Argument of Perigee328.8369
Mean Anonmoly31.2145
Mean Motion14.65742189
Decay Rate2.255E-05
L11 55152U 23004N 23084.88798662 .00002255 00000+0 40974-3 0 9998
L22 55152 86.6220 253.7152 0011768 328.8369 31.2145 14.65742189 11196



Live tracking and technical data element details for ONEWEB-0573 (NORAD 55152). ONEWEB-0573 can be tracked NOW for your location showing map with azimuth and elevation plus other details from your city location.







IsCatalogInMostPopularTable: catalog: 55152, numindb: 10
Update: records affected: 1



GetName: 55152 ONEWEB-0573

Hit Count: updated at: Mon, 27 Mar 2023 07:34:00 GMT